CZ-2C R/B, 61873

Orbit data source: Space-Track

CZ-2C R/B, 61873 is space debris in SSO originally from a launch on Sat, 09 Nov 2024 UTC launched from the Jiuquan Satellite Launch Center, China (JSC). Debris objects in space refer to the collection of defunct objects orbiting the Earth. Examples of debris include non-operational satellites, rocket bodies, and fragments generated from explosions, collisions, or faulty payload assembly.

Loading next visibility...
CZ-2C R/B details
Identifier
61873, 2024-203E
Orbit
SSO
Last TLE update8 hours ago
Origin
Flag of CNCASC (CN / PRC)
ManufacturerBWYIC
MissionSpacecraft
Bus & MotorCZ-2 STAGE 2, Unknown motor
Mass4,006 kg wet, 4,006 kg dry
Launch date (UTC)
2024-11-09 (2 months ago)
Launch vehicleUnknown
Launch site
Jiuquan Satellite Launch Center, China (JSC)
Object type
Payload
Rocket body
Debris
Shape & HBRUnknown
Radar Cross SectionLarge (>1 m²)

Expand to show TLE details & history

TLE from 8 hours ago
0 CZ-2C R/B
1 61873U 24203E   24361.27160030  .00013689  00000-0  58879-3 0  9998
2 61873  97.3801  64.7674 0098975 339.1419  20.5789 15.18331654  7147
Epoch: 2024-12-26T06:31Z
Definitive object data (Epoch: 2024-12-26T06:31:06.265Z)
Latitude-0.00003°
Longitude-128.26209°
Altitude450.209 km
Speed7.677 km/s
True Right ascension04h 19m 04s
True Declination0° 00' 00"
Sunlit
Object was in full shadow at TLE epoch
Visualization TLE readout
Latitude38.46613°
Longitude-133.8073°
Altitude482.532 km
Speed7.647 km/s
Apparent Right ascension03h 00m 02s
Apparent Declination1° 00' 43"
Sunlit
Object is in full shadow
Visualization observer readout
Local Sidereal Time13:57:30
Azimuth336.888° NNW
Elevation-46.649°
Doppler factor1
Orbital elements
Apogee altitude576.003 km
Perigee altitude439.695 km
Semi-major axis6,885.986 km
Eccentricity0.0098975
Inclination97.3801°
RAAN64.7674°
Arg. of periapsis339.1419°
True anomaly20.98222°
Mean anomaly20.5789°
Eccentric anomaly20.78009°
Mean motion3.79834 °/min
BSTAR0.00058879
Orbital period94.78 mins
Loading maneuver chart data...
Loading historical data...
Loading historical data...
Loading historical data...
Loading historical data...
Loading historical data...
Loading historical data...
Loading historical data...
Other satellites on launch #203 in the year 2024 (2024-11-09 UTC)

CZ-2C R/B Visibility forecast

Observer location: undefined°, undefined

Span
Click to sort rows by Start time (UTC) header in descending order
Start Az.
Max El. time (UTC)
Max El. Az.
Max El.
End time (UTC)
End Az.
6 mins2024-12-26 16:34:38.544Z41.851° NE2024-12-26 16:37:38.544Z94.371° ESE23.096°2024-12-26 16:40:38.544Z148.014° SSE
5 mins2024-12-26 18:09:38.544Z328.583° NNW2024-12-26 18:11:38.544Z287.289° WNW22.344°2024-12-26 18:14:38.544Z237.543° WSW
5 mins2024-12-27 04:47:38.544Z188.517° SSW2024-12-27 04:49:38.544Z236.73° WSW37.127°2024-12-27 04:52:38.544Z333.874° NNW
|